Flag for U.S.A. Weather past 2 weeks in Thousand Oaks, California, U.S.A.

Now
70 °F

Sunny.


Feels Like: 75 °F
Forecast: 61 / 87 °F
Wind: 6 mph from West

Location: Camarillo Airport

Current Time: Aug 29, 2014 at 9:11:58 AM

Latest Report: Aug 29, 2014 at 8:55 AM


Visibility: 9 mi

Pressure: 29.91 "Hg

Humidity: 66%

Dew point: 58 °F

Location of Thousand OaksLocation

Historic Weather in Thousand Oaks — Graph

°F

Thousand Oaks temperature yesterday

Maximum temperature yesterday: 85 °F (at 1:55 PM)
Minimum temperature yesterday: 65 °F (at 5:55 AM)
Average temperature yesterday: 74 °F

Past Weeks' High & Low Weather Summary

 TemperatureHumidityPressure
High90 °F (Aug 27, 1:55 PM)90% (Aug 15, 4:55 AM)30.05 "Hg (Aug 15, 4:55 AM)
Low58 °F (Aug 26, 5:55 AM)23% (Aug 27, 1:55 PM)29.81 "Hg (Aug 18, 6:55 PM)
Average71 °F65%29.95 "Hg
* Reported Aug 14 7:55 AM — Aug 29 7:55 AM, Thousand Oaks, Weather by CustomWeather, © 2014

Note: Actual official high and low records may vary slightly from our data, if they occured in-between our weather recording intervals... More about our weather records

Advertising

Thousand Oaks weather history for previous 24 hours

 ConditionsComfort  
Time TempWeatherWind HumidityBarometerVisibility
7:55 AM
Aug 29
66 °FSunny.No wind75%29.91 "Hg6 mi
6:55 AM63 °FClear.5 mph75%29.90 "Hg7 mi
5:55 AM62 °FPassing clouds.3 mph78%29.89 "Hg7 mi
4:55 AM62 °FClear.No wind78%29.89 "Hg8 mi
3:55 AM63 °FClear.No wind73%29.88 "Hg9 mi
2:55 AM64 °FClear.5 mph75%29.88 "Hg9 mi
1:55 AM64 °FClear.3 mph73%29.89 "Hg9 mi
12:55 AM66 °FClear.5 mph73%29.90 "Hg9 mi
11:55 PM
Aug 28
66 °FClear.5 mph73%29.91 "Hg10 mi
10:55 PM69 °FClear.No wind73%29.91 "Hg9 mi
9:55 PM70 °FClear.No wind71%29.92 "Hg10 mi
8:55 PM70 °FClear.6 mph71%29.93 "Hg10 mi
7:55 PM72 °FSunny.6 mph66%29.92 "Hg10 mi
6:55 PM74 °FSunny.7 mph60%29.91 "Hg10 mi
5:55 PM77 °FSunny.10 mph52%29.91 "Hg10 mi
4:55 PM80 °FSunny.10 mph49%29.93 "Hg10 mi
3:55 PM82 °FSunny.7 mph46%29.94 "Hg10 mi
2:55 PM82 °FSunny.10 mph48%29.96 "Hg10 mi
1:55 PM85 °FSunny.8 mph42%29.97 "Hg10 mi
12:55 PM84 °FSunny.9 mph38%29.99 "Hg10 mi
11:55 AM83 °FSunny.9 mph44%30.00 "Hg10 mi
10:55 AM81 °FSunny.7 mph49%30.01 "Hg10 mi
9:55 AM80 °FSunny.No wind47%30.02 "Hg10 mi
Weather by CustomWeather, © 2014

See weather overviewHow to use our weather pages